Location: München
(48.1351°N, 11.5820°E)
Time: 09:35:40
(UTC+01:00)

ISS - Visible Passes

Search period start: 24 January 2020 00:00
Search period end: 03 February 2020 00:00
Orbit: 416 x 423 km, 51.6° (Epoch: 24 January)

Date Brightness Start Highest point End Pass type
(mag) Time Alt. Az. Time Alt. Az. Time Alt. Az.
24 Jan -3.6 18:25:22 10° SW 18:28:42 60° SSE 18:30:01 32° E visible
24 Jan -0.6 20:02:18 10° W 20:02:59 15° W 20:02:59 15° W visible
25 Jan -2.9 17:38:04 10° SW 17:41:16 40° SSE 17:44:28 10° ENE visible
25 Jan -3.0 19:14:41 10° W 19:17:30 49° NW 19:17:30 49° NW visible
26 Jan -3.7 18:27:05 10° WSW 18:30:28 72° NNW 18:31:58 30° ENE visible
26 Jan -0.6 20:04:18 10° WNW 20:04:56 14° WNW 20:04:56 14° WNW visible
27 Jan -3.7 17:39:33 10° WSW 17:42:55 85° SSE 17:46:19 10° ENE visible
27 Jan -2.7 19:16:40 10° W 19:19:22 40° NW 19:19:22 40° NW visible
28 Jan -3.2 18:29:01 10° W 18:32:20 49° N 18:33:47 28° NE visible
28 Jan -0.6 20:06:10 10° WNW 20:06:44 14° WNW 20:06:44 14° WNW visible
29 Jan -3.4 17:41:21 10° W 17:44:42 57° NNW 17:48:03 10° ENE visible
29 Jan -2.6 19:18:33 10° WNW 19:21:08 39° NNW 19:21:08 39° NNW visible
30 Jan -3.1 18:30:55 10° WNW 18:34:11 44° N 18:35:33 28° NE visible
30 Jan -0.6 20:07:52 10° WNW 20:08:31 15° WNW 20:08:31 15° WNW visible
31 Jan -3.1 17:43:15 10° W 17:46:31 45° N 17:49:47 10° ENE visible
31 Jan -2.9 19:20:17 10° WNW 19:22:56 47° NW 19:22:56 47° NW visible
01 Feb -3.4 18:32:42 10° WNW 18:36:01 51° N 18:37:24 29° ENE visible
01 Feb -0.7 20:09:34 10° WNW 20:10:22 16° WNW 20:10:22 16° WNW visible
02 Feb -3.2 17:45:03 10° WNW 17:48:20 46° N 17:51:37 10° E visible
02 Feb -3.3 19:21:55 10° WNW 19:24:52 62° W 19:24:52 62° W visible
